Home   Weather   Elizabeth   Past weeks

Flag for USA Past Weather in Elizabeth, New Jersey, USA — Yesterday and Last 2 Weeks

Now
68 °F

Passing clouds.


Feels Like: 68 °F
Forecast: 67 / 86 °F
Wind: 5 mph from Southwest

Location: Newark International Airport

Current Time: Aug 21, 2017 at 4:31:09 am

Latest Report: Aug 21, 2017 at 2:51 am


Visibility: 10 mi

Pressure: 30.16 "Hg

Humidity: 78%

Dew Point: 61 °F

Location of ElizabethLocation

Past Weather in Elizabeth — Graph

°F

Elizabeth Temperature Yesterday

Maximum temperature yesterday: 85 °F (at 4:51 pm)
Minimum temperature yesterday: 68 °F (at 5:51 am)
Average temperature yesterday: 77 °F

High & Low Weather Summary for the Past Weeks

 TemperatureHumidityPressure
High88 °F (Aug 19, 2:51 pm)100% (Aug 7, 11:51 pm)30.24 "Hg (Aug 7, 11:51 pm)
Low64 °F (Aug 6, 4:51 am)36% (Aug 9, 10:51 am)29.76 "Hg (Aug 18, 4:51 pm)
Average74 °F71%29.99 "Hg
* Reported Aug 6 2:51 am — Aug 21 2:51 am, Elizabeth. Weather by CustomWeather, © 2017

Note: Actual official high and low records may vary slightly from our data, if they occured in-between our weather recording intervals... More about our weather records

Advertising

Elizabeth Weather History for the Previous 24 Hours

Scroll right to see more
 ConditionsComfort  
Time TempWeatherWind HumidityBarometerVisibility
2:51 am
Mon, Aug 21
68 °FPassing clouds.5 mph78%30.16 "Hg10 mi
1:51 am71 °FClear.No wind71%30.16 "Hg10 mi
12:51 am74 °FClear.7 mph64%30.16 "Hg10 mi
11:51 pm
Sun, Aug 20
75 °FClear.9 mph60%30.16 "Hg10 mi
10:51 pm76 °FClear.7 mph58%30.14 "Hg10 mi
9:51 pm78 °FClear.3 mph54%30.13 "Hg10 mi
8:51 pm79 °FPassing clouds.7 mph48%30.11 "Hg10 mi
7:51 pm80 °FPassing clouds.7 mph47%30.09 "Hg10 mi
6:51 pm82 °FScattered clouds.9 mph41%30.08 "Hg10 mi
5:51 pm83 °FPartly sunny.14 mph40%30.07 "Hg10 mi
4:51 pm85 °FPartly sunny.10 mph39%30.06 "Hg10 mi
3:51 pm84 °FBroken clouds.9 mph40%30.06 "Hg10 mi
2:51 pm83 °FBroken clouds.13 mph43%30.07 "Hg10 mi
1:51 pm83 °FBroken clouds.13 mph44%30.07 "Hg10 mi
12:51 pm81 °FBroken clouds.13 mph45%30.06 "Hg10 mi
11:51 am80 °FBroken clouds.13 mph49%30.06 "Hg10 mi
10:51 am79 °FScattered clouds.12 mph48%30.06 "Hg10 mi
9:51 am76 °FPassing clouds.10 mph58%30.04 "Hg10 mi
8:51 am73 °FPassing clouds.13 mph66%30.04 "Hg10 mi
7:51 am71 °FPassing clouds.9 mph71%30.03 "Hg10 mi
6:51 am69 °FPassing clouds.13 mph76%30.01 "Hg10 mi
5:51 am68 °FClear.7 mph78%29.99 "Hg10 mi
4:51 am69 °FClear.6 mph79%29.96 "Hg10 mi
Weather by CustomWeather, © 2017

See weather overviewHow to use our weather pages